{"data":{"norad_id":65074,"epoch":"2026-05-25T03:36:33.428160Z","epoch_age_seconds":61390,"freshness":"FRESH","line1":"1 65074U 25165U   26145.15038690 -.00014117  00000+0 -97706-3 0  9998","line2":"2 65074  97.4521 222.1989 0001846 215.6641 144.4463 15.05620259 46291","mean_motion":15.05620259,"eccentricity":0.0001846,"inclination_deg":97.4521,"raan_deg":222.1989,"arg_perigee_deg":215.6641,"mean_anomaly_deg":144.4463,"bstar":-0.00097706,"rev_number":4629,"period_min":95.641646118419,"perigee_km":548.32352241963,"apogee_km":550.88124379987,"semimajor_km":6927.7393831097,"source":"CELESTRAK","updated_at":"2026-05-25T13:38:20.681872Z"}}